Olympia, WA

5:57 PM PDT on March 29, 2017 (GMT -0700)
Olympia

Weather History for KOLM - December, 2014

Change the Weather History Date:

Thursday, December 25, 2014

  Actual Average Record
Temperature  
Mean Temperature 34 °F 38 °F  
Max Temperature 40 °F 44 °F 61 °F (1980)
Min Temperature 27 °F 33 °F 17 °F (1962)
Degree Days  
Heating Degree Days 31 27  
Month to date heating degree days 555 664  
Since 1 July heating degree days 1654 2109  
Cooling Degree Days 0 0  
Month to date cooling degree days 0 0  
Year to date cooling degree days 187 106  
Moisture  
Dew Point 34 °F    
Average Humidity 96    
Maximum Humidity 100    
Minimum Humidity 92    
Precipitation  
Precipitation 0.00 in 0.24 in 2.00 in (1980)
Month to date precipitation 5.35 6.09  
Year to date precipitation 53.86 48.63  
Sea Level Pressure  
Sea Level Pressure 30.20 in    
Wind  
Wind Speed 1 mph (ESE)    
Max Wind Speed 6 mph    
Max Gust Speed 7 mph    
Visibility 3 miles    
Events Fog    
T = Trace of Precipitation, MM = Missing Value Source: NWS Daily Summary

Daily Weather History Graph

Daily Weather History Graph

Search for Another Location

Airport or City:

Trip Planner

Search our weather history database for the weather conditions in past years. The results will help you decide how hot, cold, wet, or windy it might be!

Date:

Astronomy

Dec. 25, 2014 Rise Set
Actual Time 7:56 AM PST 4:27 PM PST
Civil Twilight 7:20 AM PST 5:03 PM PST
Nautical Twilight 6:41 AM PST 5:41 PM PST
Astronomical Twilight 6:04 AM PST 6:18 PM PST
Moon 10:18 AM PST (12/25) 9:24 PM PST (12/25)
Length of Visible Light 9h 42m
Length of Day
8h 31m
Waxing Crescent, 19% of the Moon is Illuminated
Dec 25
Waxing Crescent
Dec 28
First Quarter
Jan 4
Full
Jan 13
Last Quarter
Jan 20
New

Hourly Weather History & Observations

Time (PST) Temp. Windchill Dew Point Humidity Pressure Visibility Wind Dir Wind Speed Gust Speed Precip Events Conditions
12:22 AM 30.9 °F 27.5 °F 30.0 °F 96% 30.07 in 0.2 mi East 3.5 mph - N/A Fog Light Freezing Fog
12:30 AM 30.9 °F - 30.0 °F 96% 30.07 in 0.2 mi Calm Calm - N/A Fog Light Freezing Fog
12:54 AM 30.0 °F - 28.9 °F 96% 30.08 in 0.2 mi Calm Calm - N/A Fog Light Freezing Fog
1:28 AM 28.9 °F - 27.0 °F 92% 30.08 in 0.8 mi Calm Calm - N/A   Mist
1:32 AM 30.0 °F - 28.9 °F 96% 30.08 in 1.5 mi Calm Calm - N/A   Mostly Cloudy
1:35 AM 30.0 °F - 28.9 °F 96% 30.08 in 3.0 mi Calm Calm - N/A   Scattered Clouds
1:43 AM 28.0 °F - 27.0 °F 96% 30.08 in 1.8 mi Calm Calm - N/A   Scattered Clouds
1:48 AM 28.4 °F - 26.6 °F 93% 30.09 in 1.0 mi Calm Calm - N/A   Mist
1:54 AM 28.0 °F - 27.0 °F 96% 30.10 in 0.5 mi Calm Calm - N/A Fog Light Freezing Fog
2:14 AM 28.0 °F - 28.0 °F 100% 30.10 in 0.5 mi Calm Calm - N/A Fog Light Freezing Fog
2:22 AM 28.9 °F - 27.0 °F 92% 30.10 in 0.5 mi Calm Calm - N/A Fog Light Freezing Fog
2:37 AM 28.9 °F 25.2 °F 28.0 °F 96% 30.10 in 0.2 mi NNE 3.5 mph - N/A Fog Light Freezing Fog
2:54 AM 28.9 °F - 28.0 °F 96% 30.12 in 0.2 mi Calm Calm - N/A Fog Light Freezing Fog
3:54 AM 30.9 °F - 30.0 °F 96% 30.12 in 0.2 mi Calm Calm - N/A Fog Light Freezing Fog
4:54 AM 30.9 °F - 30.9 °F 100% 30.14 in 0.2 mi Calm Calm - N/A Fog Light Freezing Fog
5:47 AM 32.0 °F - 30.9 °F 96% 30.14 in 0.2 mi Calm Calm - N/A Fog Fog
5:54 AM 32.0 °F - 30.9 °F 96% 30.15 in 0.2 mi Calm Calm - N/A Fog Fog
6:01 AM 32.0 °F - 30.9 °F 96% 30.15 in 0.5 mi Calm Calm - N/A Fog Fog
6:42 AM 32.0 °F - 32.0 °F 100% 30.16 in 0.5 mi Calm Calm - N/A Fog Fog
6:54 AM 32.0 °F - 32.0 °F 100% 30.17 in 0.5 mi Calm Calm - N/A Fog Fog
7:07 AM 32.0 °F - 32.0 °F 100% 30.16 in 0.2 mi Calm Calm - N/A Fog Fog
7:54 AM 32.0 °F - 32.0 °F 100% 30.19 in 0.2 mi Calm Calm - N/A Fog Fog
8:54 AM 33.1 °F 30.0 °F 33.1 °F 100% 30.21 in 0.2 mi ESE 3.5 mph - N/A Fog Fog
9:54 AM 35.1 °F - 35.1 °F 100% 30.23 in 0.5 mi Calm Calm - N/A Fog Fog
10:00 AM 35.1 °F - 35.1 °F 100% 30.22 in 1.0 mi Calm Calm - N/A   Overcast
10:54 AM 36.0 °F - 36.0 °F 100% 30.24 in 2.5 mi Calm Calm - N/A   Overcast
11:54 AM 37.0 °F - 37.0 °F 100% 30.23 in 3.0 mi Calm Calm - N/A   Overcast
12:54 PM 39.0 °F - 37.0 °F 93% 30.22 in 3.0 mi Calm Calm - N/A   Overcast
1:54 PM 39.0 °F - 37.9 °F 96% 30.22 in 9.0 mi Calm Calm - N/A   Overcast
2:54 PM 39.9 °F 36.7 °F 37.0 °F 89% 30.24 in 8.0 mi NE 4.6 mph - N/A   Overcast
3:13 PM 39.9 °F 37.8 °F 37.9 °F 93% 30.23 in 9.0 mi North 3.5 mph - N/A   Overcast
3:37 PM 39.9 °F - 37.9 °F 93% 30.24 in 6.0 mi Calm Calm - N/A   Overcast
3:54 PM 39.9 °F 37.8 °F 37.0 °F 89% 30.25 in 7.0 mi NNE 3.5 mph - N/A   Overcast
4:54 PM 39.0 °F 35.7 °F 37.0 °F 93% 30.26 in 8.0 mi ENE 4.6 mph - N/A   Overcast
5:54 PM 39.0 °F - 37.0 °F 93% 30.26 in 7.0 mi Calm Calm - N/A   Overcast
6:54 PM 39.0 °F - 37.9 °F 96% 30.27 in 5.0 mi Calm Calm - N/A   Overcast
7:54 PM 39.9 °F - 37.9 °F 93% 30.28 in 8.0 mi Calm Calm - N/A   Overcast
8:03 PM 39.9 °F 37.8 °F 37.0 °F 89% 30.27 in 8.0 mi SSE 3.5 mph - N/A   Overcast
8:34 PM 39.0 °F 36.8 °F 37.9 °F 96% 30.27 in 6.0 mi South 3.5 mph - N/A   Overcast
8:54 PM 39.0 °F - 37.9 °F 96% 30.29 in 7.0 mi Calm Calm - N/A   Overcast
9:54 PM 39.0 °F 36.8 °F 37.9 °F 96% 30.31 in 4.0 mi SE 3.5 mph - N/A   Overcast
10:20 PM 39.0 °F 36.8 °F 37.9 °F 96% 30.30 in 2.0 mi SE 3.5 mph - N/A   Overcast
10:30 PM 39.0 °F 36.8 °F 37.9 °F 96% 30.30 in 1.8 mi SE 3.5 mph - N/A   Overcast
10:40 PM 39.0 °F 35.7 °F 37.9 °F 96% 30.30 in 2.0 mi SE 4.6 mph - N/A   Overcast
10:54 PM 39.0 °F 36.8 °F 37.9 °F 96% 30.31 in 2.5 mi SE 3.5 mph - N/A   Overcast
11:16 PM 37.9 °F 35.5 °F 37.9 °F 100% 30.31 in 1.5 mi ESE 3.5 mph - N/A   Overcast
11:23 PM 37.9 °F 35.5 °F 37.9 °F 100% 30.31 in 1.0 mi SE 3.5 mph - N/A   Overcast
11:35 PM 37.9 °F - 37.9 °F 100% 30.30 in 0.8 mi Calm Calm - N/A   Mist
11:54 PM 37.9 °F - 37.0 °F 97% 30.30 in 0.8 mi Calm Calm - N/A   Mist